Tracking 18850 objects as of 22-Nov-2017
HD Live streaming from Space Station
objects crossing your sky now

MOLNIYA 1-71

Track MOLNIYA 1-71 now!
MOLNIYA 1-71 is classified as:


NORAD ID: 18946
Int'l Code: 1988-017A
Perigee: 1,410.2 km
Apogee: 38,965.5 km
Inclination: 63.9 °
Period: 717.9 minutes
Semi major axis: 26558 km
RCS: 20.0475 m2 (large)
Launch date: March 11, 1988
Source: Commonwealth of Independent States (former USSR) (CIS)
Launch site: TYURATAM MISSILE AND SPACE COMPLEX (TTMTR)
aabbcc
Your satellite tracking list
Your tracking list is empty




NASA's NSSDC Master Catalog

Two Line Element Set (TLE):
1 18946U 88017A   17326.36968303 -.00000260  00000-0 -67148-2 0  9997
2 18946  63.9187 313.3523 7070214 267.5225 281.6203  2.00580600217636
Source of the keplerian elements: AFSPC